Regional Weather Roundup
Issued by NWS

Home | Current Version | Previous Version | Text Only | Print | Product List | Glossary On
Versions: 1 2 3 4 5 6 7 8 9 10 11 12 13 14 15 16 17 18 19 20 21 22 23 24 25 26 27 28 29 30 31 32 33 34 35 36 37 38 39 40 41 42 43 44 45 46 47 48 49 50
000
ASUS46 KLOX 290812
RWRCA

SOUTHERN CALIFORNIA WEATHER ROUNDUP
NATIONAL WEATHER SERVICE OXNARD CALIFORNIA
1200 AM PST THU JAN 29 2015

NOTE: "FAIR" INDICATES FEW OR NO CLOUDS BELOW 12,000 FEET WITH NO
SIGNIFICANT WEATHER AND/OR OBSTRUCTIONS TO VISIBILITY.

  -  STATIONS PRECEEDED BY AN ASTERISK (*) ARE NOT NWS OR FAA
     STATIONS AND ARE NOT SUBJECT TO NWS AND FAA QUALITY CONTROL.

CAZ041-042-087-290900-
LA AND ORANGE COUNTY COASTAL AREAS


CITY           SKY/WX    TMP DP  RH WIND       PRES   REMARKS
L.A. DOWNTOWN  CLOUDY    63  47  55 CALM      30.06F
L.A. AIRPORT   CLOUDY    65  48  54 CALM      30.06F
LONG BEACH     CLOUDY    64  52  64 CALM      30.06F

CITY           SKY/WX    TMP DP  RH WIND       PRES   REMARKS
AVALON           N/A     61 N/A N/A S1          N/A
FULLERTON      CLOUDY    69  43  38 NE5       30.05F
HAWTHORNE      CLOUDY    64  50  60 CALM      30.06F
*LEO CARRILLO    N/A     68  42  38 NE7G18      N/A
*LOS ALAMITOS  CLOUDY    61  52  72 CALM      30.05F
*REDONDO BEACH   N/A     59  52  79 CALM      30.06F
SANTA ANA      CLOUDY    64  54  69 CALM      30.05F
STA MONICA APT CLOUDY    66  43  43 N3        30.06F
*UCLA            N/A     66  41  39 N7        30.03F

$$

CAZ547-548-048-290900-
LA COUNTY VALLEYS AND INLAND EMPIRE


CITY           SKY/WX    TMP DP  RH WIND       PRES   REMARKS
BURBANK        CLOUDY    63  41  44 NE5       30.07F
VAN NUYS       CLOUDY    65  44  46 N13       30.07F

CITY           SKY/WX    TMP DP  RH WIND       PRES   REMARKS
CORONA AIRPORT CLOUDY    66  44  45 SE7       30.08F
CHINO          CLOUDY    58  48  69 E6        30.09F
MARCH AFB      CLOUDY    52  48  89 NW5       30.10F
*NORTHRIDGE      N/A     66  37  34 N7G18       N/A
ONTARIO        CLOUDY    59  46  62 N3        30.07F
*PASADENA        N/A     64  45  48 CALM        N/A
RIVERSIDE      CLOUDY    64  43  46 E6        30.08F
SAN BERNARDINO NOT AVBL
*SAN RAFAEL HI   N/A     65  35  33 NW5         N/A
*SAUGUS          N/A     59  44  57 N7          N/A
*WHITEMAN AP   NOT AVBL
*WOODLAND HILL   N/A     57  46  67 SE2         N/A

$$

CAZ054-055-290900-
LA AND SAN BERNARDINO COUNTY MOUNTAINS


CITY           SKY/WX    TMP DP  RH WIND       PRES   REMARKS
*ACTON           N/A     56  43  62 N10         N/A
*BIG BEAR AIRP CLOUDY    32  30  93 CALM      30.26S
*BIG PINES       N/A     38  24  56 CALM        N/A
MT WILSON NWS    N/A     46  16  29 MISG        N/A
SANDBERG       CLOUDY    50  40  68 E20       30.21F
*WARM SPRINGS    N/A     49  39  69 NE18        N/A

$$

CAZ028-029-059-060-099-290900-
ANTELOPE VALLEY AND SURROUNDING AREAS


CITY           SKY/WX    TMP DP  RH WIND       PRES   REMARKS
LANCASTER      CLOUDY    47  44  90 NW6       30.20F
PALMDALE       CLOUDY    50  46  86 N8        30.20F
*POPPY PARK      N/A     48  45  88 CALM        N/A

CITY           SKY/WX    TMP DP  RH WIND       PRES   REMARKS
29 PALMS       CLOUDY    52  47  83 NW6       30.23F
BARSTOW/DAGGET CLOUDY    52  46  80 W6        30.18F
BISHOP         CLOUDY    38  29  70 NE6       30.26S WCI  33
CHINA LAKE     CLOUDY    52  48  86 SW3       30.18F
EDWARDS AFB    CLOUDY    51  48  92 NW5       30.18F
MOJAVE         FAIR      50  43  76 CALM      30.21F
NEEDLES        CLOUDY    63  46  54 N3        30.12F
VICTORVILLE    CLOUDY    48  45  87 CALM      30.19F

$$

CAZ039-040-290900-
VENTURA AND SANTA BARBARA COUNTY COAST


CITY           SKY/WX    TMP DP  RH WIND       PRES   REMARKS
CAMARILLO      CLOUDY    67  45  45 E12       30.06F
NWS OXNARD       N/A     64  47  53 CALM      30.06F
OXNARD AIRPORT CLOUDY    60  54  80 CALM      30.06F
*POINT MUGU    CLOUDY    69  47  45 NE9       30.07F
SBA APT/GOLETA CLOUDY    58  52  80 N6        30.07F
*SANTA BARBARA   N/A     61  51  70 CALM      30.15F
*VENTURA         N/A     64  43  46 CALM      30.11S

$$

CAZ044-045-290900-
VENTURA COUNTY VALLEYS


CITY           SKY/WX    TMP DP  RH WIND       PRES   REMARKS
*SIMI VALLEY     N/A     64  46  53 N9        30.04F
*OJAI            N/A     53  49  85 CALM      30.02F

$$

CAZ053-290900-
VENTURA COUNTY MOUNTAINS


CITY           SKY/WX    TMP DP  RH WIND       PRES   REMARKS
*LOCKWOOD VLY    N/A     43  34  70 MISG        N/A
*ROSE VALLEY     N/A     46 -99   0 MISG        N/A

$$

CAZ034-035-036-290900-
CENTRAL COAST AND SANTA YNEZ VALLEY


CITY           SKY/WX    TMP DP  RH WIND       PRES   REMARKS
SAN LUIS OBISP MOCLDY    52  48  86 CALM      30.11F
SANTA MARIA    MOCLDY    54  48  80 E5        30.12S

CITY           SKY/WX    TMP DP  RH WIND       PRES   REMARKS
*CAL POLY SLO    N/A     59  50  72 NE10G20     N/A
*LOMPOC        MOCLDY    52  45  76 E3        30.11S
*PISMO BEACH     N/A     55  49  80 NE5       30.12S
*SANTA YNEZ    FAIR      54  48  82 CALM      30.11F

$$

CAZ037-038-051-290900-
SAN LUIS OBISPO COUNTY INTERIOR AND CUYAMA VALLEY


CITY           SKY/WX    TMP DP  RH WIND       PRES   REMARKS
*CUYAMA          N/A     50  48  92 CALM      30.13F
PASO ROBLES    MOCLDY    46  43  89 CALM      30.16F FOG

$$

CAZ032-033-061-290900-
SOUTHERN DESERTS


CITY           SKY/WX    TMP DP  RH WIND       PRES   REMARKS
BLYTHE         CLOUDY    61  50  67 N8        30.08F
IMPERIAL       CLOUDY    59  51  75 W6        30.08F
PALM SPRINGS   CLOUDY    66  43  43 W5        30.13S
THERMAL        CLOUDY    59  49  69 CALM      30.08F

$$

ELSEWHERE ACROSS THE WESTERN UNITED STATES AND MEXICO


CITY           SKY/WX    TMP DP  RH WIND       PRES   REMARKS
DENVER, CO     MOCLDY    38  31  76 W9        30.37R WCI  31
GRAND CANYON,  CLOUDY    37  32  82 CALM      30.28F
HONOLULU, HI   MOCLDY    75  66  73 S5        29.94S
KAHULUI, MAUI  CLEAR     66  63  88 SE6       29.95S
LAKE TAHOE, CA PTCLDY    29  23  78 CALM      30.29S
LAS VEGAS, NV  CLOUDY    57  46  66 S5        30.14F
MAMMOTH LAKES, FAIR      28  25  86 CALM      30.32S
MEXICO CITY, M CLEAR     54  37  54 NW5       30.35F
PHOENIX, AZ    CLOUDY    63  50  62 CALM      30.07S
PORTLAND, OR   CLOUDY    45  43  93 E3        30.34R
RENO, NV       PTCLDY    38  30  73 W3        30.30F
SALT LAKE CITY PTCLDY    34  32  92 S3        30.37S
SAN DIEGO, CA  CLOUDY    62  55  77 CALM      30.07F
SAN FRANCISCO, PTCLDY    55  54  96 W8        30.17S
SAN JOSE, CA   MOCLDY    50  45  83 CALM      30.18R
SEATTLE, WA    PTCLDY    43  40  89 N8        30.37R
TIJUANA, MEX   CLOUDY    61  45  55 CALM      30.08F

$$

STATION/POSITION TIME  TEMP    WIND        PRES    VSBY  WAVE
                       AIR SEA DIR/SP/G                  HT/PER
                 (UTC) (F)     (DEG/KT/KT) (MB)    (MI)  (FT/S)
POINT ARGUELLO B NOT AVBL
WEST SANTA BARBA 0800   61 60  320/  4/  6 1018.2F         5/13
POINT CONCEPTION NOT AVBL
EAST SANTA BARBA NOT AVBL
SANTA MONICA BAY 0800   64 62   40/  2/  2 1018.5F         3/14


USA.gov is the U.S. government's official web portal to all federal, state and local government web resources and services.